Date String (YYYY-MM-DD hh:mm:ss) UTC,Instrument flags,Ambient pressure (hPa),Sample flow (lpm),Bypass flow (lpm),Sample temperature (°C),Ambient temperature (°C),ASC tube jacket temperature (°C),LED temperature (°C),Box temperature (°C),Sample RH (%),Span deviation,Mass concentration (μg/m³),Mass concentration (μg/m³),Mass concentration (μg/m³)
DateTimeUTC,F1_M11,P_M11,Q1_M11,Q2_M11,T1_M11,T2_M11,T3_M11,T4_M11,T5_M11,U1_M11,ZSPAN_M11,X0_M11,X2_M11,X1_M11
2021-08-22 16:00:00,,0826.2,4.99,0.00,30.2,27.4,00.0,39.3,31.6,28.7,0001.1,0013.45,0008.54,0007.82
2021-08-22 16:01:00,,0826.2,5.00,0.00,30.1,26.4,00.0,39.3,31.4,28.9,0001.0,0013.52,0008.58,0007.84
2021-08-22 16:02:00,,0826.2,5.01,0.00,30.0,26.7,00.0,39.3,31.4,29.2,0001.0,0013.57,0008.60,0007.85
2021-08-22 16:03:00,,0826.2,5.00,0.00,29.9,27.1,00.0,39.2,31.4,29.7,0001.0,0013.51,0008.58,0007.84
2021-08-22 16:04:00,,0826.2,5.00,0.00,29.9,27.5,00.0,39.2,31.5,29.4,0001.1,0013.72,0008.60,0007.85
2021-08-22 16:05:00,,0826.2,5.01,0.00,29.9,27.9,00.0,39.1,31.5,29.9,0001.4,0014.18,0008.63,0007.84
2021-08-22 16:06:00,,0826.1,5.01,0.00,29.9,28.2,00.0,39.1,31.6,30.1,0001.3,0014.32,0008.66,0007.85
2021-08-22 16:07:00,,0826.1,4.99,0.00,29.9,28.4,00.0,39.1,31.6,30.3,0001.6,0014.64,0008.64,0007.86
2021-08-22 16:08:00,,0826.0,5.01,0.00,30.0,28.6,00.0,39.1,31.7,30.2,0001.5,0015.01,0008.60,0007.85
2021-08-22 16:09:00,,0826.0,4.99,0.00,30.0,28.7,00.0,39.1,31.8,29.5,0001.5,0014.59,0008.63,0007.86
2021-08-22 16:10:00,,0826.1,5.01,0.00,30.0,28.8,00.0,39.1,31.8,29.0,0001.5,0014.57,0008.66,0007.87
2021-08-22 16:11:00,,0826.0,4.99,0.00,30.0,28.9,00.0,39.1,31.8,28.9,0001.5,0014.43,0008.64,0007.88
2021-08-22 16:12:00,,0826.0,5.01,0.00,30.0,29.0,00.0,39.2,31.8,29.6,0001.6,0014.33,0008.60,0007.88
2021-08-22 16:13:00,,0825.9,5.00,0.00,30.0,29.0,00.0,39.2,31.9,30.0,0001.4,0014.28,0008.58,0007.88
2021-08-22 16:14:00,,0825.9,4.99,0.00,30.1,29.1,00.0,39.2,31.9,30.2,0001.3,0014.32,0008.61,0007.89
2021-08-22 16:15:00,,0826.0,5.01,0.00,30.1,29.2,00.0,39.2,31.9,29.8,0001.2,0014.08,0008.58,0007.88
2021-08-22 16:16:00,,0826.0,5.00,0.00,30.1,29.2,00.0,39.2,32.0,29.7,0001.0,0013.67,0008.56,0007.91
2021-08-22 16:17:00,,0825.9,5.00,0.00,30.1,29.3,00.0,39.2,32.0,30.0,0001.0,0013.59,0008.56,0007.93
2021-08-22 16:18:00,,0826.0,5.00,0.00,30.2,29.3,00.0,39.2,32.0,29.9,0000.8,0013.43,0008.60,0007.94
2021-08-22 16:19:00,,0826.1,5.01,0.00,30.2,29.4,00.0,39.2,32.0,29.4,0000.9,0013.94,0008.63,0007.95
2021-08-22 16:20:00,,0826.2,5.00,0.00,30.2,28.7,00.0,39.3,31.9,29.4,0001.1,0013.76,0008.58,0007.93
2021-08-22 16:21:00,,0826.1,4.99,0.00,30.1,26.9,00.0,39.2,31.4,29.5,0001.3,0013.82,0008.56,0007.93
2021-08-22 16:22:00,,0826.0,5.00,0.00,29.9,26.3,00.0,39.2,31.1,30.1,0001.3,0014.52,0008.57,0007.93
2021-08-22 16:23:00,,0826.0,5.01,0.00,29.8,26.7,00.0,39.1,31.2,30.4,0001.2,0015.44,0008.62,0007.93
2021-08-22 16:24:00,,0826.0,5.00,0.00,29.8,27.1,00.0,39.1,31.3,31.4,0001.4,0015.48,0008.63,0007.94
2021-08-22 16:25:00,,0826.0,5.01,0.00,29.8,27.5,00.0,39.0,31.4,31.2,0001.6,0015.55,0008.63,0007.95
2021-08-22 16:26:00,,0826.0,4.99,0.00,29.8,27.8,00.0,39.0,31.4,30.8,0001.4,0015.62,0008.65,0007.95
2021-08-22 16:27:00,,0825.9,5.00,0.00,29.8,28.1,00.0,39.0,31.5,30.6,0001.4,0015.57,0008.65,0007.93
2021-08-22 16:28:00,,0826.0,5.00,0.00,29.8,28.3,00.0,39.0,31.6,30.6,0001.5,0015.52,0008.64,0007.92
2021-08-22 16:29:00,,0826.0,5.00,0.00,29.8,28.5,00.0,39.0,31.6,30.7,0001.8,0015.55,0008.63,0007.92
2021-08-22 16:30:00,,0826.0,4.99,0.00,29.9,28.6,00.0,39.0,31.7,31.2,0001.8,0014.57,0008.63,0007.92
2021-08-22 16:31:00,,0826.0,5.01,0.00,29.9,28.8,00.0,39.0,31.7,31.3,0001.7,0014.43,0008.66,0007.92
2021-08-22 16:32:00,,0826.0,5.00,0.00,29.9,28.8,00.0,39.0,31.8,30.7,0001.6,0014.47,0008.70,0007.92
2021-08-22 16:33:00,,0826.0,5.00,0.00,30.0,28.9,00.0,39.0,31.8,30.8,0001.8,0013.80,0008.71,0007.92
2021-08-22 16:34:00,,0825.9,4.99,0.00,30.0,29.0,00.0,39.1,31.8,30.9,0001.8,0013.00,0008.69,0007.93
2021-08-22 16:35:00,,0825.9,5.00,0.00,30.0,29.0,00.0,39.1,31.9,31.2,0001.8,0012.94,0008.68,0007.89
2021-08-22 16:36:00,,0825.9,4.99,0.00,30.0,29.1,00.0,39.1,31.9,30.9,0001.6,0012.85,0008.66,0007.87
2021-08-22 16:37:00,,0825.8,5.01,0.00,30.1,29.1,00.0,39.1,31.9,31.0,0001.5,0012.86,0008.61,0007.85
2021-08-22 16:38:00,,0825.9,5.01,0.00,30.1,29.1,00.0,39.1,31.9,31.1,0001.8,0012.89,0008.56,0007.82
2021-08-22 16:39:00,,0826.0,5.00,0.00,30.0,27.9,00.0,39.1,31.6,31.3,0001.8,0013.52,0008.56,0007.78
2021-08-22 16:40:00,,0825.9,5.00,0.00,29.9,26.3,00.0,39.1,31.1,31.4,0001.6,0013.50,0008.60,0007.76
2021-08-22 16:41:00,,0826.0,5.00,0.00,29.7,26.0,00.0,39.0,31.0,31.8,0001.3,0013.60,0008.61,0007.75
2021-08-22 16:42:00,,0826.0,5.00,0.00,29.7,26.5,00.0,39.0,31.1,31.9,0001.2,0013.72,0008.60,0007.74
2021-08-22 16:43:00,,0826.0,5.01,0.00,29.6,26.9,00.0,38.9,31.2,32.0,0001.4,0013.67,0008.57,0007.72
2021-08-22 16:44:00,,0826.0,4.98,0.00,29.6,27.3,00.0,38.9,31.3,31.9,0001.5,0013.61,0008.53,0007.68
2021-08-22 16:45:00,,0825.9,5.00,0.00,29.6,27.6,00.0,38.9,31.3,32.0,0001.8,0013.61,0008.52,0007.65
2021-08-22 16:46:00,,0825.9,5.00,0.00,29.6,27.9,00.0,38.9,31.4,32.4,0001.8,0013.81,0008.52,0007.66
2021-08-22 16:47:00,,0825.9,5.00,0.00,29.7,28.1,00.0,38.9,31.4,32.8,0001.9,0014.22,0008.54,0007.66
2021-08-22 16:48:00,,0825.9,5.01,0.00,29.7,28.2,00.0,38.8,31.5,32.7,0001.9,0014.74,0008.54,0007.65
2021-08-22 16:49:00,,0825.9,4.99,0.00,29.7,28.4,00.0,38.9,31.5,32.6,0001.7,0015.28,0008.56,0007.66
2021-08-22 16:50:00,,0826.0,5.00,0.00,29.7,28.5,00.0,38.9,31.5,32.6,0001.4,0015.26,0008.54,0007.67
2021-08-22 16:51:00,,0826.0,5.01,0.00,29.7,28.6,00.0,38.9,31.5,32.7,0001.5,0015.14,0008.50,0007.66
2021-08-22 16:52:00,,0826.1,5.00,0.00,29.7,28.7,00.0,38.9,31.6,33.3,0001.7,0014.99,0008.47,0007.65
2021-08-22 16:53:00,,0826.0,4.99,0.00,29.8,28.7,00.0,38.9,31.6,32.9,0001.8,0014.83,0008.45,0007.65
2021-08-22 16:54:00,,0825.9,5.01,0.00,29.8,28.8,00.0,38.9,31.7,33.1,0001.7,0014.75,0008.44,0007.65
2021-08-22 16:55:00,,0825.9,4.99,0.00,29.8,28.9,00.0,38.9,31.7,33.2,0001.4,0014.92,0008.43,0007.67
2021-08-22 16:56:00,,0825.9,5.01,0.00,29.8,28.9,00.0,38.9,31.7,33.1,0001.3,0015.20,0008.42,0007.66
2021-08-22 16:57:00,,0825.9,5.01,0.00,29.9,29.0,00.0,38.9,31.7,32.6,0001.2,0015.46,0008.46,0007.66
2021-08-22 16:58:00,,0825.7,5.00,0.00,29.9,29.0,00.0,38.9,31.7,32.8,0001.2,0015.13,0008.43,0007.65
2021-08-22 16:59:00,,0825.9,5.00,0.00,29.9,29.1,00.0,39.0,31.8,32.8,0001.1,0014.51,0008.44,0007.65
